Regional Weather Roundup
Issued by NWS

Home | Current Version | Previous Version | Text Only | Print | Product List | Glossary Off
Versions: 1 2 3 4 5 6 7 8 9 10 11 12 13 14 15 16 17 18 19 20 21 22 23 24 25 26 27 28 29 30 31 32 33 34 35 36 37 38 39 40 41 42 43 44 45 46 47 48 49 50

000
ASUS43 KLOT 070721
RWRIL

ILLINOIS REGIONAL WEATHER ROUNDUP
NATIONAL WEATHER SERVICE CHICAGO/ROMEOVILLE IL
200 AM CDT THU MAY 07 2015

NOTE: "FAIR" INDICATES FEW OR NO CLOUDS BELOW 12,000 FEET WITH NO
SIGNIFICANT WEATHER AND/OR OBSTRUCTIONS TO VISIBILITY.

* THESE STATIONS ARE NOT UNDER NWS QUALITY CONTROL. THEY ALSO MAY NOT
  REPORT WEATHER SUCH AS PRECIPITATION OR FOG.

ILZ001-002-007-009-015-016-024-070800-
NORTHWEST ILLINOIS

CITY           SKY/WX    TMP DP  RH WIND       PRES   REMARKS
MOLINE         CLEAR     66  54  65 S8        29.97F
STERLING*      CLEAR     64  54  68 SE7       30.01F
SAVANNA*       PTCLDY    65  55  70 S8        29.99F
$$

ILZ003-004-008-010-011-017-018-070800-
NORTH CENTRAL ILLINOIS

CITY           SKY/WX    TMP DP  RH WIND       PRES   REMARKS
ROCKFORD       PTCLDY    61  55  81 SE5       30.04F HAZE
FREEPORT*      CLEAR     58  55  88 SE7       30.04S FOG
ROCHELLE*      CLEAR     58  56  92 SE5       30.04F FOG
DE KALB*       CLEAR     60  55  82 SE7       30.06S
PERU*          CLEAR     65  54  68 SE8       30.04F
$$

ILZ005-006-012>014-019>023-070800-
NORTHEAST ILLINOIS

CITY           SKY/WX    TMP DP  RH WIND       PRES   REMARKS
CHICAGO-OHARE  PTCLDY    55  50  83 E3        30.06F
CHICAGO-MIDWAY PTCLDY    58  51  78 E6        30.06F
AURORA         PTCLDY    62  54  74 SE5       30.05F HAZE
LANSING*       CLEAR     57  51  82 CALM      30.08S
JOLIET*        MOCLDY    60  58  91 CALM      30.06S
WAUKEGAN       CLEAR     46  45  96 CALM      30.06F
DUPAGE AIRPORT PTCLDY    57  54  89 CALM      30.05F
KANKAKEE*      CLEAR     61  56  84 CALM      30.07F
WHEELING       PTCLDY    50  46  86 E3        30.08F
MORRIS*        PTCLDY    64  55  71 SE3       30.04S
ROMEOVILLE*    PTCLDY    62  54  75 SE7       30.06F
NORTHERLY ISL    N/A     49  47  93 CALM        N/A
$$

LMZ740>746-070800-
SOUTHERN LAKE MICHIGAN

STATION/POSITION SKY/WX   TEMP    WIND        PRES    VSBY  WAVE
                          AIR SEA DIR/SP/G                  HT/PER
                          (F)     (DEG/KT/KT) (MB)    (MI)  (FT/S)
HARRISON CRIB              56     180/  4/  6   N/A
BURNHAM HARBOR             50      CALM  /  4   N/A
CALUMET HARBOR             48     330/  1/  3   N/A
BURNS HARBOR               71     140/ 12/ 16 1019.3
MICHIGAN CITY              68     120/ 10/ 12   N/A
MICHIGAN CITY 6N           62 53  160/ 10/ 10   N/A           1
ST. JOSEPH                 61 51  160/ 10/ 10   N/A           1
$$

ILZ025>027-034>036-040-047-049-050-058-095>099-070800-
WEST-CENTRAL ILLINOIS

CITY           SKY/WX    TMP DP  RH WIND       PRES   REMARKS
QUINCY         CLEAR     65  52  62 SE7       29.98S
GALESBURG*     CLEAR     67  54  62 SE8       29.99F
MACOMB*        CLEAR     65  55  71 SE10      30.01F
JACKSONVILLE*  PTCLDY    71  55  55 SE8       30.02S
PITTSFIELD*    PTCLDY    68  53  58 SE8       30.01S
$$

ILZ028>032-037-038-041>044-048-051>054-059>061-070800-
CENTRAL ILLINOIS

CITY           SKY/WX    TMP DP  RH WIND       PRES   REMARKS
PONTIAC        CLEAR     63  57  82 SE5       30.06S
BLOOMINGTON    CLEAR     64  56  75 S10       30.07F
DECATUR        CLEAR     66  54  65 S6        30.06F
PEORIA         CLEAR     71  54  54 S8        30.02F
LACON*         CLEAR     65  53  64 CALM      30.02F
LINCOLN*       PTCLDY    66  55  67 SE3       30.02F
SPRINGFIELD    CLEAR     71  55  56 S12       30.03F
TAYLORVILLE    PTCLDY    64  54  68 SE7       30.05S
$$

ILZ033-039-045-046-055>057-062-063-070800-
EAST-CENTRAL ILLINOIS

CITY           SKY/WX    TMP DP  RH WIND       PRES   REMARKS
CHAMPAIGN      CLEAR     66  53  63 SE7       30.07S
DANVILLE*      CLEAR     65  54  65 CALM      30.06S
RANTOUL*       CLEAR     64  55  72 CALM      30.08S
MATTOON        CLEAR     65  55  70 S5        30.06F
PARIS*         CLEAR     62  55  75 CALM      30.08F
$$

ILZ079-100>102-070800-
SOUTHWEST ILLINOIS

CITY           SKY/WX    TMP DP  RH WIND       PRES   REMARKS
ALTON          PTCLDY    62  58  87 SE7       30.03F
BELLEVILLE     PTCLDY    63  58  85 CALM      30.03F
CAHOKIA*       PTCLDY    66  55  67 S6        30.03S
SPARTA*        PTCLDY    62  56  80 SE3       30.05F
$$

ILZ064>066-069>071-074>076-080>082-084>086-088>090-092>094-070800-
SOUTH-CENTRAL ILLINOIS

CITY           SKY/WX    TMP DP  RH WIND       PRES   REMARKS
CARBONDALE     CLEAR     59  55  87 CALM      30.05F
CAIRO*         CLEAR     60  56  87 CALM      30.05F
EFFINGHAM*     CLEAR     62  53  72 CALM      30.08F
MARION         CLEAR     66  57  72 CALM      30.06F
MT. VERNON     CLEAR    N/A N/A N/A CALM      30.06F
CENTRALIA*     CLEAR     60  55  81 SE5       30.06F
SALEM*         CLEAR     64  56  75 CALM      30.07S
METROPOLIS*    CLEAR     59  59 100 CALM      30.06F
$$

ILZ067-068-072-073-078-083-087-091-070800-
SOUTHEAST ILLINOIS

CITY           SKY/WX    TMP DP  RH WIND       PRES   REMARKS
LAWRENCEVILLE  MOCLDY    65  59  81 CALM      30.08S
FLORA*         CLEAR     61  55  81 CALM      30.07S
FAIRFIELD*     CLEAR     62  59  90 CALM      30.06S
HARRISBURG*    CLEAR     60  58  93 CALM      30.08F
ROBINSON*      CLEAR     60  55  83 CALM      30.09S
CARMI*         CLEAR     61  54  78 CALM      30.07S
$$

ABBREVIATIONS USED IN REMARKS
   TC - TEMPERATURE IN CELSIUS
  WCI - WIND CHILL INDEX
   HX - HEAT INDEX
  VSB - VISIBILITY
$$




USA.gov is the U.S. government's official web portal to all federal, state and local government web resources and services.